{"data":{"norad_id":55618,"epoch":"2026-05-24T19:37:12.990144Z","epoch_age_seconds":80975,"freshness":"FRESH","line1":"1 55618U 23020BB  26144.81751146  .00000234  00000+0  18030-4 0  9996","line2":"2 55618  43.0016 284.1643 0001160 274.3065  85.7654 15.27573786180683","mean_motion":15.27573786,"eccentricity":0.000116,"inclination_deg":43.0016,"raan_deg":284.1643,"arg_perigee_deg":274.3065,"mean_anomaly_deg":85.7654,"bstar":1.803e-5,"rev_number":18068,"period_min":94.267132180285,"perigee_km":482.27180330865,"apogee_km":483.86360279976,"semimajor_km":6861.2047030542,"source":"CELESTRAK","updated_at":"2026-05-25T13:38:17.845102Z"}}